Year,Month,Day,Hour,Minute,Value (Times are PST for temperature in C)
2007,08,30,00,00,18.00
2007,08,30,00,01,17.90
2007,08,30,00,02,17.90
2007,08,30,00,03,17.90
2007,08,30,00,04,17.90
2007,08,30,00,05,17.90
2007,08,30,00,06,17.90
2007,08,30,00,07,17.90
2007,08,30,00,08,17.80
2007,08,30,00,09,17.80
2007,08,30,00,10,17.70
2007,08,30,00,11,17.70
2007,08,30,00,12,17.60
2007,08,30,00,13,17.60
2007,08,30,00,14,17.50
2007,08,30,00,15,17.50
2007,08,30,00,16,17.40
2007,08,30,00,17,17.30
2007,08,30,00,18,17.30
2007,08,30,00,19,17.20
2007,08,30,00,20,17.10
2007,08,30,00,21,17.10
2007,08,30,00,22,17.00
2007,08,30,00,23,17.00
2007,08,30,00,24,16.90
2007,08,30,00,25,16.90
2007,08,30,00,26,16.80
2007,08,30,00,27,16.80
2007,08,30,00,28,16.70
2007,08,30,00,29,16.70
2007,08,30,00,30,16.70
2007,08,30,00,31,16.60
2007,08,30,00,32,16.60
2007,08,30,00,33,16.40
2007,08,30,00,34,16.40
2007,08,30,00,35,16.40
2007,08,30,00,36,16.40
2007,08,30,00,37,16.30
2007,08,30,00,38,16.30
2007,08,30,00,39,16.20
2007,08,30,00,40,16.10
2007,08,30,00,41,16.10
2007,08,30,00,42,16.10
2007,08,30,00,43,16.00
2007,08,30,00,44,15.90
2007,08,30,00,45,15.80
2007,08,30,00,46,15.80
2007,08,30,00,47,15.80
2007,08,30,00,48,15.80
2007,08,30,00,49,15.80
2007,08,30,00,50,15.80
2007,08,30,00,51,15.70
2007,08,30,00,52,15.70
2007,08,30,00,53,15.60
2007,08,30,00,54,15.60
2007,08,30,00,55,15.50
2007,08,30,00,56,15.50
2007,08,30,00,57,15.50
2007,08,30,00,58,15.40
2007,08,30,00,59,15.40
2007,08,30,01,00,15.30
2007,08,30,01,01,15.30
2007,08,30,01,02,15.30
2007,08,30,01,03,15.30
2007,08,30,01,04,15.20
2007,08,30,01,05,15.20
2007,08,30,01,06,15.20
2007,08,30,01,07,15.20
2007,08,30,01,08,15.10
2007,08,30,01,09,15.10
2007,08,30,01,10,15.10
2007,08,30,01,11,15.10
2007,08,30,01,12,15.10
2007,08,30,01,13,15.10
2007,08,30,01,14,15.00
2007,08,30,01,15,15.00
2007,08,30,01,16,15.00
2007,08,30,01,17,14.90
2007,08,30,01,18,14.90
2007,08,30,01,19,14.90
2007,08,30,01,20,14.90
2007,08,30,01,21,14.90
2007,08,30,01,22,14.90
2007,08,30,01,23,14.90
2007,08,30,01,24,14.90
2007,08,30,01,25,14.90
2007,08,30,01,26,14.90
2007,08,30,01,27,14.80
2007,08,30,01,28,14.80
2007,08,30,01,29,14.80
2007,08,30,01,30,14.80
2007,08,30,01,31,14.80
2007,08,30,01,32,14.80
2007,08,30,01,33,14.80
2007,08,30,01,34,14.80
2007,08,30,01,35,14.80
2007,08,30,01,36,14.80
2007,08,30,01,37,14.80
2007,08,30,01,38,14.80
2007,08,30,01,39,14.80
2007,08,30,01,40,14.80
2007,08,30,01,41,14.80
2007,08,30,01,42,14.70
2007,08,30,01,43,14.70
2007,08,30,01,44,14.70
2007,08,30,01,45,14.60
2007,08,30,01,46,14.60
2007,08,30,01,47,14.60
2007,08,30,01,48,14.60
2007,08,30,01,49,14.60
2007,08,30,01,50,14.60
2007,08,30,01,51,14.50
2007,08,30,01,52,14.50
2007,08,30,01,53,14.50
2007,08,30,01,54,14.50
2007,08,30,01,55,14.50
2007,08,30,01,56,14.40
2007,08,30,01,57,14.40
2007,08,30,01,58,14.40
2007,08,30,01,59,14.40
2007,08,30,02,00,14.30
2007,08,30,02,01,14.30
2007,08,30,02,02,14.30
2007,08,30,02,03,14.30
2007,08,30,02,04,14.30
2007,08,30,02,05,14.30
2007,08,30,02,06,14.20
2007,08,30,02,07,14.20
2007,08,30,02,08,14.20
2007,08,30,02,09,14.20
2007,08,30,02,10,14.20
2007,08,30,02,11,14.20
2007,08,30,02,12,14.20
2007,08,30,02,13,14.20
2007,08,30,02,14,14.20
2007,08,30,02,15,14.20
2007,08,30,02,16,14.20
2007,08,30,02,17,14.20
2007,08,30,02,18,14.20
2007,08,30,02,19,14.20
2007,08,30,02,20,14.20
2007,08,30,02,21,14.20
2007,08,30,02,22,14.20
2007,08,30,02,23,14.20
2007,08,30,02,24,14.20
2007,08,30,02,25,14.20
2007,08,30,02,26,14.20
2007,08,30,02,27,14.20
2007,08,30,02,28,14.10
2007,08,30,02,29,14.10
2007,08,30,02,30,14.10
2007,08,30,02,31,14.10
2007,08,30,02,32,14.10
2007,08,30,02,33,14.00
2007,08,30,02,34,14.00
2007,08,30,02,35,14.00
2007,08,30,02,36,14.00
2007,08,30,02,37,14.00
2007,08,30,02,38,14.00
2007,08,30,02,39,14.00
2007,08,30,02,40,14.00
2007,08,30,02,41,13.90
2007,08,30,02,42,13.90
2007,08,30,02,43,13.90
2007,08,30,02,44,13.90
2007,08,30,02,45,13.90
2007,08,30,02,46,13.90
2007,08,30,02,47,13.90
2007,08,30,02,48,13.90
2007,08,30,02,49,13.90
2007,08,30,02,50,13.90
2007,08,30,02,51,13.80
2007,08,30,02,52,13.80
2007,08,30,02,53,13.80
2007,08,30,02,54,13.80
2007,08,30,02,55,13.80
2007,08,30,02,56,13.70
2007,08,30,02,57,13.70
2007,08,30,02,58,13.70
2007,08,30,02,59,13.70
2007,08,30,03,00,13.70
2007,08,30,03,01,13.70
2007,08,30,03,02,13.70
2007,08,30,03,03,13.70
2007,08,30,03,04,13.70
2007,08,30,03,05,13.70
2007,08,30,03,06,13.60
2007,08,30,03,07,13.60
2007,08,30,03,08,13.60
2007,08,30,03,09,13.60
2007,08,30,03,10,13.60
2007,08,30,03,11,13.60
2007,08,30,03,12,13.60
2007,08,30,03,13,13.60
2007,08,30,03,14,13.50
2007,08,30,03,15,13.50
2007,08,30,03,16,13.50
2007,08,30,03,17,13.50
2007,08,30,03,18,13.50
2007,08,30,03,19,13.50
2007,08,30,03,20,13.50
2007,08,30,03,21,13.40
2007,08,30,03,22,13.40
2007,08,30,03,23,13.40
2007,08,30,03,24,13.40
2007,08,30,03,25,13.40
2007,08,30,03,26,13.40
2007,08,30,03,27,13.40
2007,08,30,03,28,13.40
2007,08,30,03,29,13.40
2007,08,30,03,30,13.50
2007,08,30,03,31,13.50
2007,08,30,03,32,13.40
2007,08,30,03,33,13.40
2007,08,30,03,34,13.40
2007,08,30,03,35,13.40
2007,08,30,03,36,13.40
2007,08,30,03,37,13.30
2007,08,30,03,38,13.30
2007,08,30,03,39,13.30
2007,08,30,03,40,13.30
2007,08,30,03,41,13.30
2007,08,30,03,42,13.30
2007,08,30,03,43,13.30
2007,08,30,03,44,13.30
2007,08,30,03,45,13.30
2007,08,30,03,46,13.30
2007,08,30,03,47,13.30
2007,08,30,03,48,13.20
2007,08,30,03,49,13.20
2007,08,30,03,50,13.20
2007,08,30,03,51,13.20
2007,08,30,03,52,13.20
2007,08,30,03,53,13.20
2007,08,30,03,54,13.20
2007,08,30,03,55,13.20
2007,08,30,03,56,13.20
2007,08,30,03,57,13.20
2007,08,30,03,58,13.20
2007,08,30,03,59,13.20
2007,08,30,04,00,13.20
2007,08,30,04,01,13.20
2007,08,30,04,02,13.10
2007,08,30,04,03,13.10
2007,08,30,04,04,13.10
2007,08,30,04,05,13.10
2007,08,30,04,06,13.10
2007,08,30,04,07,13.10
2007,08,30,04,08,13.10
2007,08,30,04,09,13.00
2007,08,30,04,10,13.00
2007,08,30,04,11,13.00
2007,08,30,04,12,12.90
2007,08,30,04,13,12.90
2007,08,30,04,14,12.90
2007,08,30,04,15,12.80
2007,08,30,04,16,12.80
2007,08,30,04,17,12.80
2007,08,30,04,18,12.80
2007,08,30,04,19,12.80
2007,08,30,04,20,12.80
2007,08,30,04,21,12.80
2007,08,30,04,22,12.70
2007,08,30,04,23,12.70
2007,08,30,04,24,12.70
2007,08,30,04,25,12.70
2007,08,30,04,26,12.70
2007,08,30,04,27,12.60
2007,08,30,04,28,12.60
2007,08,30,04,29,12.60
2007,08,30,04,30,12.60
2007,08,30,04,31,12.60
2007,08,30,04,32,12.60
2007,08,30,04,33,12.60
2007,08,30,04,34,12.60
2007,08,30,04,35,12.50
2007,08,30,04,36,12.50
2007,08,30,04,37,12.50
2007,08,30,04,38,12.50
2007,08,30,04,39,12.50
2007,08,30,04,40,12.50
2007,08,30,04,41,12.50
2007,08,30,04,42,12.50
2007,08,30,04,43,12.50
2007,08,30,04,44,12.50
2007,08,30,04,45,12.50
2007,08,30,04,46,12.50
2007,08,30,04,47,12.50
2007,08,30,04,48,12.50
2007,08,30,04,49,12.50
2007,08,30,04,50,12.50
2007,08,30,04,51,12.50
2007,08,30,04,52,12.50
2007,08,30,04,53,12.60
2007,08,30,04,54,12.60
2007,08,30,04,55,12.60
2007,08,30,04,56,12.60
2007,08,30,04,57,12.60
2007,08,30,04,58,12.60
2007,08,30,04,59,12.60
2007,08,30,05,00,12.60
2007,08,30,05,01,12.60
2007,08,30,05,02,12.60
2007,08,30,05,03,12.60
2007,08,30,05,04,12.60
2007,08,30,05,05,12.60
2007,08,30,05,06,12.70
2007,08,30,05,07,12.70
2007,08,30,05,08,12.70
2007,08,30,05,09,12.70
2007,08,30,05,10,12.70
2007,08,30,05,11,12.70
2007,08,30,05,12,12.70
2007,08,30,05,13,12.80
2007,08,30,05,14,12.80
2007,08,30,05,15,12.80
2007,08,30,05,16,12.80
2007,08,30,05,17,12.80
2007,08,30,05,18,12.80
2007,08,30,05,19,12.80
2007,08,30,05,20,12.90
2007,08,30,05,21,12.90
2007,08,30,05,22,12.90
2007,08,30,05,23,13.00
2007,08,30,05,24,13.00
2007,08,30,05,25,13.10
2007,08,30,05,26,13.10
2007,08,30,05,27,13.10
2007,08,30,05,28,13.20
2007,08,30,05,29,13.20
2007,08,30,05,30,13.20
2007,08,30,05,31,13.30
2007,08,30,05,32,13.30
2007,08,30,05,33,13.30
2007,08,30,05,34,13.30
2007,08,30,05,35,13.30
2007,08,30,05,36,13.30
2007,08,30,05,37,13.30
2007,08,30,05,38,13.30
2007,08,30,05,39,13.30
2007,08,30,05,40,13.30
2007,08,30,05,41,13.30
2007,08,30,05,42,13.30
2007,08,30,05,43,13.30
2007,08,30,05,44,13.30
2007,08,30,05,45,13.20
2007,08,30,05,46,13.20
2007,08,30,05,47,13.20
2007,08,30,05,48,13.20
2007,08,30,05,49,13.10
2007,08,30,05,50,13.10
2007,08,30,05,51,13.10
2007,08,30,05,52,13.10
2007,08,30,05,53,13.10
2007,08,30,05,54,13.10
2007,08,30,05,55,13.10
2007,08,30,05,56,13.10
2007,08,30,05,57,13.00
2007,08,30,05,58,13.00
2007,08,30,05,59,13.00
2007,08,30,06,00,13.00
2007,08,30,06,01,13.00
2007,08,30,06,02,13.00
2007,08,30,06,03,13.00
2007,08,30,06,04,13.00
2007,08,30,06,05,13.00
2007,08,30,06,06,13.00
2007,08,30,06,07,12.90
2007,08,30,06,08,12.90
2007,08,30,06,09,12.80
2007,08,30,06,10,12.80
2007,08,30,06,11,12.80
2007,08,30,06,12,12.80
2007,08,30,06,13,12.70
2007,08,30,06,14,12.70
2007,08,30,06,15,12.70
2007,08,30,06,16,12.60
2007,08,30,06,17,12.60
2007,08,30,06,18,12.50
2007,08,30,06,19,12.50
2007,08,30,06,20,12.50
2007,08,30,06,21,12.40
2007,08,30,06,22,12.40
2007,08,30,06,23,12.40
2007,08,30,06,24,12.40
2007,08,30,06,25,12.40
2007,08,30,06,26,12.30
2007,08,30,06,27,12.30
2007,08,30,06,28,12.30
2007,08,30,06,29,12.30
2007,08,30,06,30,12.30
2007,08,30,06,31,12.30
2007,08,30,06,32,12.30
2007,08,30,06,33,12.30
2007,08,30,06,34,12.30
2007,08,30,06,35,12.30
2007,08,30,06,36,12.20
2007,08,30,06,37,12.20
2007,08,30,06,38,12.20
2007,08,30,06,39,12.20
2007,08,30,06,40,12.20
2007,08,30,06,41,12.20
2007,08,30,06,42,12.20
2007,08,30,06,43,12.20
2007,08,30,06,44,12.20
2007,08,30,06,45,12.10
2007,08,30,06,46,12.10
2007,08,30,06,47,12.10
2007,08,30,06,48,12.10
2007,08,30,06,49,12.10
2007,08,30,06,50,12.10
2007,08,30,06,51,12.10
2007,08,30,06,52,12.10
2007,08,30,06,53,12.10
2007,08,30,06,54,12.10
2007,08,30,06,55,12.10
2007,08,30,06,56,12.10
2007,08,30,06,57,12.10
2007,08,30,06,58,12.10
2007,08,30,06,59,12.10
2007,08,30,07,00,12.10
2007,08,30,07,01,12.10
2007,08,30,07,02,12.10
2007,08,30,07,03,12.10
2007,08,30,07,04,12.10
2007,08,30,07,05,12.10
2007,08,30,07,06,12.10
2007,08,30,07,07,12.10
2007,08,30,07,08,12.10
2007,08,30,07,09,12.10
2007,08,30,07,10,12.10
2007,08,30,07,11,12.10
2007,08,30,07,12,12.10
2007,08,30,07,13,12.10
2007,08,30,07,14,12.10
2007,08,30,07,15,12.10
2007,08,30,07,16,12.10
2007,08,30,07,17,12.10
2007,08,30,07,18,12.20
2007,08,30,07,19,12.20
2007,08,30,07,20,12.20
2007,08,30,07,21,12.20
2007,08,30,07,22,12.20
2007,08,30,07,23,12.20
2007,08,30,07,24,12.20
2007,08,30,07,25,12.20
2007,08,30,07,26,12.20
2007,08,30,07,27,12.20
2007,08,30,07,28,12.20
2007,08,30,07,29,12.20
2007,08,30,07,30,12.20
2007,08,30,07,31,12.20
2007,08,30,07,32,12.30
2007,08,30,07,33,12.30
2007,08,30,07,34,12.30
2007,08,30,07,35,12.30
2007,08,30,07,36,12.30
2007,08,30,07,37,12.30
2007,08,30,07,38,12.30
2007,08,30,07,39,12.30
2007,08,30,07,40,12.40
2007,08,30,07,41,12.40
2007,08,30,07,42,12.50
2007,08,30,07,43,12.50
2007,08,30,07,44,12.50
2007,08,30,07,45,12.50
2007,08,30,07,46,12.60
2007,08,30,07,47,12.60
2007,08,30,07,48,12.60
2007,08,30,07,49,12.70
2007,08,30,07,50,12.80
2007,08,30,07,51,12.80
2007,08,30,07,52,12.80
2007,08,30,07,53,12.80
2007,08,30,07,54,12.80
2007,08,30,07,55,12.90
2007,08,30,07,56,12.90
2007,08,30,07,57,13.00
2007,08,30,07,58,13.00
2007,08,30,07,59,13.10
2007,08,30,08,00,13.10
2007,08,30,08,01,13.10
2007,08,30,08,02,13.10
2007,08,30,08,03,13.20
2007,08,30,08,04,13.20
2007,08,30,08,05,13.20
2007,08,30,08,06,13.30
2007,08,30,08,07,13.30
2007,08,30,08,08,13.30
2007,08,30,08,09,13.30
2007,08,30,08,10,13.40
2007,08,30,08,11,13.50
2007,08,30,08,12,13.50
2007,08,30,08,13,13.50
2007,08,30,08,14,13.60
2007,08,30,08,15,13.60
2007,08,30,08,16,13.70
2007,08,30,08,17,13.70
2007,08,30,08,18,13.80
2007,08,30,08,19,13.80
2007,08,30,08,20,13.90
2007,08,30,08,21,14.00
2007,08,30,08,22,14.00
2007,08,30,08,23,14.10
2007,08,30,08,24,14.20
2007,08,30,08,25,14.30
2007,08,30,08,26,14.40
2007,08,30,08,27,14.50
2007,08,30,08,28,14.60
2007,08,30,08,29,14.60
2007,08,30,08,30,14.70
2007,08,30,08,31,14.90
2007,08,30,08,32,15.00
2007,08,30,08,33,15.10
2007,08,30,08,34,15.30
2007,08,30,08,35,15.50
2007,08,30,08,36,15.70
2007,08,30,08,37,15.80
2007,08,30,08,38,16.00
2007,08,30,08,39,16.20
2007,08,30,08,40,16.30
2007,08,30,08,41,16.50
2007,08,30,08,42,16.70
2007,08,30,08,43,16.80
2007,08,30,08,44,16.90
2007,08,30,08,45,17.00
2007,08,30,08,46,17.20
2007,08,30,08,47,17.30
2007,08,30,08,48,17.50
2007,08,30,08,49,17.60
2007,08,30,08,50,17.70
2007,08,30,08,51,17.80
2007,08,30,08,52,17.90
2007,08,30,08,53,17.90
2007,08,30,08,54,18.00
2007,08,30,08,55,18.10
2007,08,30,08,56,18.20
2007,08,30,08,57,18.40
2007,08,30,08,58,18.50
2007,08,30,08,59,18.60
2007,08,30,09,00,18.70
2007,08,30,09,01,18.70
2007,08,30,09,02,18.80
2007,08,30,09,03,18.90
2007,08,30,09,04,18.90
2007,08,30,09,05,19.00
2007,08,30,09,06,19.10
2007,08,30,09,07,19.20
2007,08,30,09,08,19.40
2007,08,30,09,09,19.40
2007,08,30,09,10,19.40
2007,08,30,09,11,19.30
2007,08,30,09,12,19.30
2007,08,30,09,13,19.30
2007,08,30,09,14,19.30
2007,08,30,09,15,19.30
2007,08,30,09,16,19.40
2007,08,30,09,17,19.50
2007,08,30,09,18,19.60
2007,08,30,09,19,19.70
2007,08,30,09,20,19.80
2007,08,30,09,21,19.80
2007,08,30,09,22,19.90
2007,08,30,09,23,19.90
2007,08,30,09,24,19.90
2007,08,30,09,25,19.90
2007,08,30,09,26,20.10
2007,08,30,09,27,20.10
2007,08,30,09,28,20.00
2007,08,30,09,29,20.10
2007,08,30,09,30,20.10
2007,08,30,09,31,20.10
2007,08,30,09,32,20.10
2007,08,30,09,33,20.00
2007,08,30,09,34,19.90
2007,08,30,09,35,19.90
2007,08,30,09,36,19.90
2007,08,30,09,37,19.90
2007,08,30,09,38,20.00
2007,08,30,09,39,20.10
2007,08,30,09,40,20.10
2007,08,30,09,41,20.10
2007,08,30,09,42,20.10
2007,08,30,09,43,20.10
2007,08,30,09,44,20.10
2007,08,30,09,45,20.10
2007,08,30,09,46,20.20
2007,08,30,09,47,20.20
2007,08,30,09,48,20.30
2007,08,30,09,49,20.40
2007,08,30,09,50,20.50
2007,08,30,09,51,20.50
2007,08,30,09,52,20.50
2007,08,30,09,53,20.50
2007,08,30,09,54,20.50
2007,08,30,09,55,20.40
2007,08,30,09,56,20.40
2007,08,30,09,57,20.30
2007,08,30,09,58,20.30
2007,08,30,09,59,20.40
2007,08,30,10,00,20.40
2007,08,30,10,01,20.40
2007,08,30,10,02,20.40
2007,08,30,10,03,20.40
2007,08,30,10,04,20.50
2007,08,30,10,05,20.60
2007,08,30,10,06,20.60
2007,08,30,10,07,20.50
2007,08,30,10,08,20.50
2007,08,30,10,09,20.40
2007,08,30,10,10,20.30
2007,08,30,10,11,20.20
2007,08,30,10,12,20.10
2007,08,30,10,13,20.00
2007,08,30,10,14,19.90
2007,08,30,10,15,19.80
2007,08,30,10,16,19.80
2007,08,30,10,17,19.80
2007,08,30,10,18,19.80
2007,08,30,10,19,19.90
2007,08,30,10,20,19.90
2007,08,30,10,21,19.90
2007,08,30,10,22,20.00
2007,08,30,10,23,20.10
2007,08,30,10,24,20.10
2007,08,30,10,25,20.20
2007,08,30,10,26,20.20
2007,08,30,10,27,20.20
2007,08,30,10,28,20.20
2007,08,30,10,29,20.10
2007,08,30,10,30,20.00
2007,08,30,10,31,19.90
2007,08,30,10,32,19.90
2007,08,30,10,33,19.80
2007,08,30,10,34,19.80
2007,08,30,10,35,19.90
2007,08,30,10,36,19.90
2007,08,30,10,37,20.00
2007,08,30,10,38,20.10
2007,08,30,10,39,20.10
2007,08,30,10,40,20.10
2007,08,30,10,41,20.10
2007,08,30,10,42,20.00
2007,08,30,10,43,19.90
2007,08,30,10,44,19.90
2007,08,30,10,45,19.90
2007,08,30,10,46,20.00
2007,08,30,10,47,20.10
2007,08,30,10,48,20.20
2007,08,30,10,49,20.20
2007,08,30,10,50,20.40
2007,08,30,10,51,20.50
2007,08,30,10,52,20.60
2007,08,30,10,53,20.70
2007,08,30,10,54,20.60
2007,08,30,10,55,20.70
2007,08,30,10,56,20.90
2007,08,30,10,57,21.00
2007,08,30,10,58,21.20
2007,08,30,10,59,21.30
2007,08,30,11,00,21.30
2007,08,30,11,01,21.40
2007,08,30,11,02,21.40
2007,08,30,11,03,21.50
2007,08,30,11,04,21.60
2007,08,30,11,05,21.70
2007,08,30,11,06,21.70
2007,08,30,11,07,21.60
2007,08,30,11,08,21.60
2007,08,30,11,09,21.50
2007,08,30,11,10,21.40
2007,08,30,11,11,21.30
2007,08,30,11,12,21.30
2007,08,30,11,13,21.30
2007,08,30,11,14,21.30
2007,08,30,11,15,21.30
2007,08,30,11,16,21.40
2007,08,30,11,17,21.40
2007,08,30,11,18,21.40
2007,08,30,11,19,21.40
2007,08,30,11,20,21.30
2007,08,30,11,21,21.30
2007,08,30,11,22,21.30
2007,08,30,11,23,21.30
2007,08,30,11,24,21.30
2007,08,30,11,25,21.30
2007,08,30,11,26,21.30
2007,08,30,11,27,21.30
2007,08,30,11,28,21.30
2007,08,30,11,29,21.30
2007,08,30,11,30,21.30
2007,08,30,11,31,21.30
2007,08,30,11,32,21.30
2007,08,30,11,33,21.20
2007,08,30,11,34,21.20
2007,08,30,11,35,21.30
2007,08,30,11,36,21.30
2007,08,30,11,37,21.30
2007,08,30,11,38,21.30
2007,08,30,11,39,21.50
2007,08,30,11,40,21.60
2007,08,30,11,41,21.60
2007,08,30,11,42,21.70
2007,08,30,11,43,21.70
2007,08,30,11,44,21.70
2007,08,30,11,45,21.70
2007,08,30,11,46,21.80
2007,08,30,11,47,21.80
2007,08,30,11,48,21.90
2007,08,30,11,49,22.00
2007,08,30,11,50,22.00
2007,08,30,11,51,22.10
2007,08,30,11,52,22.20
2007,08,30,11,53,22.30
2007,08,30,11,54,22.30
2007,08,30,11,55,22.40
2007,08,30,11,56,22.40
2007,08,30,11,57,22.40
2007,08,30,11,58,22.40
2007,08,30,11,59,22.30
2007,08,30,12,00,22.20
2007,08,30,12,01,22.20
2007,08,30,12,02,22.20
2007,08,30,12,03,22.20
2007,08,30,12,04,22.20
2007,08,30,12,05,22.20
2007,08,30,12,06,22.10
2007,08,30,12,07,22.10
2007,08,30,12,08,22.20
2007,08,30,12,09,22.20
2007,08,30,12,10,22.30
2007,08,30,12,11,22.50
2007,08,30,12,12,22.50
2007,08,30,12,13,22.60
2007,08,30,12,14,22.60
2007,08,30,12,15,22.80
2007,08,30,12,16,22.90
2007,08,30,12,17,23.00
2007,08,30,12,18,23.20
2007,08,30,12,19,23.30
2007,08,30,12,20,23.30
2007,08,30,12,21,23.40
2007,08,30,12,22,23.60
2007,08,30,12,23,23.70
2007,08,30,12,24,23.70
2007,08,30,12,25,23.70
2007,08,30,12,26,23.70
2007,08,30,12,27,23.70
2007,08,30,12,28,23.70
2007,08,30,12,29,23.70
2007,08,30,12,30,23.60
2007,08,30,12,31,23.60
2007,08,30,12,32,23.60
2007,08,30,12,33,23.60
2007,08,30,12,34,23.70
2007,08,30,12,35,23.70
2007,08,30,12,36,23.60
2007,08,30,12,37,23.50
2007,08,30,12,38,23.40
2007,08,30,12,39,23.50
2007,08,30,12,40,23.60
2007,08,30,12,41,23.60
2007,08,30,12,42,23.70
2007,08,30,12,43,23.80
2007,08,30,12,44,23.80
2007,08,30,12,45,23.80
2007,08,30,12,46,23.80
2007,08,30,12,47,23.90
2007,08,30,12,48,23.80
2007,08,30,12,49,23.80
2007,08,30,12,50,23.80
2007,08,30,12,51,23.90
2007,08,30,12,52,23.90
2007,08,30,12,53,23.90
2007,08,30,12,54,23.90
2007,08,30,12,55,23.80
2007,08,30,12,56,23.80
2007,08,30,12,57,23.90
2007,08,30,12,58,24.00
2007,08,30,12,59,24.10
2007,08,30,13,00,24.10
2007,08,30,13,01,24.10
2007,08,30,13,02,24.20
2007,08,30,13,03,24.30
2007,08,30,13,04,24.30
2007,08,30,13,05,24.30
2007,08,30,13,06,24.30
2007,08,30,13,07,24.30
2007,08,30,13,08,24.10
2007,08,30,13,09,24.10
2007,08,30,13,10,24.10
2007,08,30,13,11,24.10
2007,08,30,13,12,24.10
2007,08,30,13,13,24.10
2007,08,30,13,14,24.10
2007,08,30,13,15,24.20
2007,08,30,13,16,24.20
2007,08,30,13,17,24.20
2007,08,30,13,18,24.30
2007,08,30,13,19,24.40
2007,08,30,13,20,24.50
2007,08,30,13,21,24.40
2007,08,30,13,22,24.40
2007,08,30,13,23,24.50
2007,08,30,13,24,24.40
2007,08,30,13,25,24.40
2007,08,30,13,26,24.40
2007,08,30,13,27,24.50
2007,08,30,13,28,24.60
2007,08,30,13,29,24.70
2007,08,30,13,30,24.70
2007,08,30,13,31,24.50
2007,08,30,13,32,24.50
2007,08,30,13,33,24.40
2007,08,30,13,34,24.40
2007,08,30,13,35,24.50
2007,08,30,13,36,24.50
2007,08,30,13,37,24.50
2007,08,30,13,38,24.50
2007,08,30,13,39,24.50
2007,08,30,13,40,24.50
2007,08,30,13,41,24.60
2007,08,30,13,42,24.70
2007,08,30,13,43,24.80
2007,08,30,13,44,24.80
2007,08,30,13,45,24.80
2007,08,30,13,46,24.90
2007,08,30,13,47,24.90
2007,08,30,13,48,24.80
2007,08,30,13,49,24.80
2007,08,30,13,50,24.70
2007,08,30,13,51,24.70
2007,08,30,13,52,24.70
2007,08,30,13,53,24.70
2007,08,30,13,54,24.70
2007,08,30,13,55,24.80
2007,08,30,13,56,24.80
2007,08,30,13,57,24.80
2007,08,30,13,58,24.80
2007,08,30,13,59,24.90
2007,08,30,14,00,24.90
2007,08,30,14,01,24.80
2007,08,30,14,02,24.80
2007,08,30,14,03,24.80
2007,08,30,14,04,24.90
2007,08,30,14,05,24.90
2007,08,30,14,06,24.80
2007,08,30,14,07,24.80
2007,08,30,14,08,24.80
2007,08,30,14,09,24.80
2007,08,30,14,10,24.90
2007,08,30,14,11,24.80
2007,08,30,14,12,24.80
2007,08,30,14,13,24.80
2007,08,30,14,14,24.90
2007,08,30,14,15,24.80
2007,08,30,14,16,24.80
2007,08,30,14,17,24.80
2007,08,30,14,18,24.80
2007,08,30,14,19,24.80
2007,08,30,14,20,24.80
2007,08,30,14,21,24.80
2007,08,30,14,22,24.90
2007,08,30,14,23,24.90
2007,08,30,14,24,24.80
2007,08,30,14,25,24.70
2007,08,30,14,26,24.60
2007,08,30,14,27,24.60
2007,08,30,14,28,24.60
2007,08,30,14,29,24.70
2007,08,30,14,30,24.80
2007,08,30,14,31,24.80
2007,08,30,14,32,24.90
2007,08,30,14,33,25.10
2007,08,30,14,34,25.20
2007,08,30,14,35,25.30
2007,08,30,14,36,25.40
2007,08,30,14,37,25.40
2007,08,30,14,38,25.50
2007,08,30,14,39,25.60
2007,08,30,14,40,25.60
2007,08,30,14,41,25.50
2007,08,30,14,42,25.40
2007,08,30,14,43,25.50
2007,08,30,14,44,25.50
2007,08,30,14,45,25.60
2007,08,30,14,46,25.60
2007,08,30,14,47,25.70
2007,08,30,14,48,25.80
2007,08,30,14,49,25.90
2007,08,30,14,50,25.90
2007,08,30,14,51,25.80
2007,08,30,14,52,25.70
2007,08,30,14,53,25.70
2007,08,30,14,54,25.60
2007,08,30,14,55,25.60
2007,08,30,14,56,25.70
2007,08,30,14,57,25.70
2007,08,30,14,58,25.70
2007,08,30,14,59,25.80
2007,08,30,15,00,25.80
2007,08,30,15,01,25.70
2007,08,30,15,02,25.50
2007,08,30,15,03,25.30
2007,08,30,15,04,25.20
2007,08,30,15,05,25.10
2007,08,30,15,06,25.10
2007,08,30,15,07,25.10
2007,08,30,15,08,25.10
2007,08,30,15,09,25.20
2007,08,30,15,10,25.30
2007,08,30,15,11,25.30
2007,08,30,15,12,25.30
2007,08,30,15,13,25.20
2007,08,30,15,14,25.20
2007,08,30,15,15,25.20
2007,08,30,15,16,25.30
2007,08,30,15,17,25.30
2007,08,30,15,18,25.30
2007,08,30,15,19,25.40
2007,08,30,15,20,25.40
2007,08,30,15,21,25.30
2007,08,30,15,22,25.30
2007,08,30,15,23,25.30
2007,08,30,15,24,25.30
2007,08,30,15,25,25.30
2007,08,30,15,26,25.20
2007,08,30,15,27,25.20
2007,08,30,15,28,25.20
2007,08,30,15,29,25.20
2007,08,30,15,30,25.10
2007,08,30,15,31,25.10
2007,08,30,15,32,25.10
2007,08,30,15,33,25.10
2007,08,30,15,34,25.00
2007,08,30,15,35,24.90
2007,08,30,15,36,24.90
2007,08,30,15,37,25.00
2007,08,30,15,38,25.00
2007,08,30,15,39,24.90
2007,08,30,15,40,24.90
2007,08,30,15,41,24.90
2007,08,30,15,42,24.90
2007,08,30,15,43,25.00
2007,08,30,15,44,25.10
2007,08,30,15,45,25.20
2007,08,30,15,46,25.20
2007,08,30,15,47,25.20
2007,08,30,15,48,25.20
2007,08,30,15,49,25.10
2007,08,30,15,50,25.20
2007,08,30,15,51,25.20
2007,08,30,15,52,25.20
2007,08,30,15,53,25.20
2007,08,30,15,54,25.20
2007,08,30,15,55,25.20
2007,08,30,15,56,25.20
2007,08,30,15,57,25.20
2007,08,30,15,58,25.00
2007,08,30,15,59,24.90
2007,08,30,16,00,24.80
2007,08,30,16,01,24.80
2007,08,30,16,02,24.80
2007,08,30,16,03,24.70
2007,08,30,16,04,24.70
2007,08,30,16,05,24.70
2007,08,30,16,06,24.70
2007,08,30,16,07,24.70
2007,08,30,16,08,24.70
2007,08,30,16,09,24.70
2007,08,30,16,10,24.80
2007,08,30,16,11,24.80
2007,08,30,16,12,24.80
2007,08,30,16,13,24.90
2007,08,30,16,14,24.90
2007,08,30,16,15,24.90
2007,08,30,16,16,24.80
2007,08,30,16,17,24.70
2007,08,30,16,18,24.60
2007,08,30,16,19,24.60
2007,08,30,16,20,24.60
2007,08,30,16,21,24.60
2007,08,30,16,22,24.60
2007,08,30,16,23,24.60
2007,08,30,16,24,24.60
2007,08,30,16,25,24.50
2007,08,30,16,26,24.40
2007,08,30,16,27,24.40
2007,08,30,16,28,24.30
2007,08,30,16,29,24.30
2007,08,30,16,30,24.20
2007,08,30,16,31,24.10
2007,08,30,16,32,24.10
2007,08,30,16,33,24.10
2007,08,30,16,34,24.10
2007,08,30,16,35,24.10
2007,08,30,16,36,24.20
2007,08,30,16,37,24.20
2007,08,30,16,38,24.20
2007,08,30,16,39,24.20
2007,08,30,16,40,24.30
2007,08,30,16,41,24.40
2007,08,30,16,42,24.50
2007,08,30,16,43,24.60
2007,08,30,16,44,24.70
2007,08,30,16,45,24.80
2007,08,30,16,46,24.80
2007,08,30,16,47,24.90
2007,08,30,16,48,25.00
2007,08,30,16,49,25.00
2007,08,30,16,50,25.10
2007,08,30,16,51,25.10
2007,08,30,16,52,25.10
2007,08,30,16,53,25.10
2007,08,30,16,54,25.20
2007,08,30,16,55,25.20
2007,08,30,16,56,25.20
2007,08,30,16,57,25.20
2007,08,30,16,58,25.20
2007,08,30,16,59,25.20
2007,08,30,17,00,25.20
2007,08,30,17,01,25.20
2007,08,30,17,02,25.20
2007,08,30,17,03,25.20
2007,08,30,17,04,25.20
2007,08,30,17,05,25.20
2007,08,30,17,06,25.30
2007,08,30,17,07,25.30
2007,08,30,17,08,25.40
2007,08,30,17,09,25.40
2007,08,30,17,10,25.40
2007,08,30,17,11,25.40
2007,08,30,17,12,25.40
2007,08,30,17,13,25.40
2007,08,30,17,14,25.30
2007,08,30,17,15,25.30
2007,08,30,17,16,25.20
2007,08,30,17,17,25.10
2007,08,30,17,18,25.00
2007,08,30,17,19,25.00